COSMOS 2492 (754)

Last updated on Fri Dec 12 2025 00:03:20 GMT+0000 (Coordinated Universal Time)

1 39620U 14012A 25345.63434074 -.00000053 00000+0 00000+0 0 9995 2 39620 65.4084 320.3085 0014213 311.3676 48.5095 2.13102949 91246
UTC large
Height (km)
Speed (km/s)
/
Latitude / Longitude
Inclination (degrees)
Orbital Period (minutes)
Azimuth
Elevation
Range (km)
Doppler Factor

Next 0 passes for location: London (51.5072 / 0.1276)

Sorry there are no passes over London.